Simultaneous Nadir Overpasses (SNOs) Predictions

Prediction of SNOs between AQUA and GOES-15 Satellite Orbit:

Table of predicted SNOs for the next 14.0 days since TLE Epoch: 7/17/2021
Index Date Time (AQUA) AQUA Lat,Lon GOES-15 Lat,Lon Distance(km) Time Diff (sec)
1 07/17/2021 10:00:55 -0.33,-126.42 -0.07,-127.75 151.06 80
2 07/17/2021 22:22:20 -0.73,-131.62 0.09,-127.65 451.16 80
3 07/19/2021 09:48:44 -0.94,-123.46 -0.07,-127.67 478.09 80
4 07/19/2021 22:10:09 -0.12,-128.66 0.09,-127.56 124.31 80
5 07/21/2021 21:57:58 0.49,-125.70 0.09,-127.47 201.74 80
6 07/22/2021 10:19:14 0.59,-130.86 -0.11,-127.54 378.34 80
7 07/24/2021 10:07:03 -0.03,-127.91 -0.11,-127.44 52.67 80
8 07/26/2021 09:54:52 -0.64,-124.95 -0.11,-127.35 273.11 80
9 07/26/2021 22:16:16 -0.48,-130.14 0.13,-127.24 329.74 80
10 07/28/2021 22:04:05 0.14,-127.18 0.13,-127.14 4.49 80
11 07/30/2021 21:51:53 0.70,-124.21 0.12,-127.05 321.71 80
